カタログに戻る

HULIANWANG DIGUI-123

運用中通信LEO
NORAD 67063·PAYLOAD·🇨🇳 China

打ち上げ Dec 11, 2025 から Wenchang Space Launch Site

Loading…

次のパス (今後24時間)

TLE

最新Source: Space-Track

元期: Sep 14, 2026, 17:41 UTC

1 67063U 25295E   26257.73707683 -.00000114  00000-0  22610-4 0  9990
2 67063  50.0037  64.3155 0000772  67.1065 292.9889 13.29325468 37419

AllMySatでHULIANWANG DIGUI-123をリアルタイム追跡

Download on the App Store